Welcome to the New NWS' Forecast!
Most changes are behind the scenes, but click here for differences you might notice.

Regional Weather Roundup (RWR)

Issued by Gray - Portland, ME (GYX)

                            
650 
ASUS41 KGYX 162205
RWRGYX
WEATHER ROUNDUP FOR MAINE AND NEW HAMPSHIRE
NATIONAL WEATHER SERVICE GRAY ME
600 PM EDT THU AUG 16 2018

MEZ002-005-006-010-012-015-018-020-021-024-026-027-029-162300-
MAINE
  
CITY           SKY/WX    TMP DP  RH WIND       PRES   REMARKS
PORTLAND       FAIR      83  60  45 N9        29.98R                  
SANFORD        FAIR      81  55  40 NW10      30.01R                  
BAR HARBOR     FAIR      77  57  50 N7        29.99R                  
WISCASSET      FAIR      80  57  45 VRB3      30.00R                  
ROCKLAND       FAIR      79  57  46 VRB6      29.99R                  
FRYEBURG       FAIR      79  54  41 W7        30.02R                  
LEWISTONAUBURN FAIR      79  55  43 N9        30.01R                  
AUGUSTA        FAIR      78  54  43 NW12      30.01R                  
WATERVILLE     FAIR      76  55  48 N6        29.99R                  
BANGOR         FAIR      77  53  43 N12       30.00R                  
GREENVILLE       N/A     69  51  52 VRB6      30.03R                  
MILLINOCKET    FAIR      74  53  48 N7        30.02R                  
HOULTON        FAIR      69  57  65 N9        29.99R                  
PRESQUE ISLE   FAIR      70  54  56 NW10      30.02                   
FRENCHVILLE    PTSUNNY   67  50  54 NW7       30.03R                  
CARIBOU        PTSUNNY   70  52  52 N9        30.01R                  
$$

NHZ002-005-008-009-011-012-014-162300-
NEW HAMPSHIRE
  
CITY           SKY/WX    TMP DP  RH WIND       PRES   REMARKS
PORTSMOUTH     MOSUNNY   84  61  46 NW7       29.98R                  
ROCHESTER      FAIR      81  61  50 NW12      30.00R                  
MANCHESTER     NOT AVBL                                               
CONCORD        FAIR      84  61  45 NW6       30.01R                  
LACONIA        FAIR      80  59  48 NW7       30.03R                  
PLYMOUTH       FAIR      80  54  40 NW6       30.02S                  
BERLIN         FAIR      75  52  44 VRB7      30.06R                  
WHITEFIELD     FAIR      76  55  48 W5        30.06R                  
JAFFREY        NOT AVBL                                               
LEBANON        PTSUNNY   84  61  45 N5        30.02S                  
MT WASHINGTON  MOSUNNY   48  46  93 NW38G46     N/A                   
$$

VTZ005-007-008-162300-
VERMONT
  
CITY           SKY/WX    TMP DP  RH WIND       PRES   REMARKS
ST JOHNSBURY     N/A     76  51  41 MISG      30.03S                  
MONTPELIER     FAIR      74  57  55 NW10      30.10S                  
BURLINGTON     FAIR      78  54  43 N6        30.04S                  
$$

MAZ007-012-024-CTZ003-RIZ002-NYZ038-NYZ072-162300-
SOUTHERN NEW ENGLAND AND NY
  
CITY           SKY/WX    TMP DP  RH WIND       PRES   REMARKS
BOSTON         FAIR      90  61  37 NW15G22   29.98R HX  90           
WORCESTER      FAIR      82  69  64 W6        30.05R                  
NANTUCKET      FAIR      78  74  87 W13       30.00S                  
PROVIDENCE     FAIR      86  69  56 W9        30.00S HX  90           
HARTFORD       FAIR      87  69  54 NW5       30.01S HX  91           
ALBANY         FAIR      86  68  54 W7        30.02S                  
NEW YORK CITY  FAIR      91  64  40 SW7       30.02S HX  92           
$$

ANZ081-ANZ082-ANZ150-NHZ014-MEZ023>029-162300-
COASTAL MARINE OBSERVATIONS
  
STATION/POSITION TIME  TEMP    WIND        PRES    WAVE
                       AIR SEA DIR/SP/G            HT/PER
                 (UTC) (F)     (DEG/KT/KT) (MB)    (FT/S)
MOUNT DESERT ROC 2200   68     250/ 13/ 14 1015.4R
MATINICUS ROCK   2100   75      CALM  /  2 1014.6R
ISLE OF SHOALS   2100   81     310/ 14/ 16 1014.5R
JEFFREYS LEDGE   2136      69                N/A     1/ 8
$$

.............KEY..............
   WCI - WIND CHILL
   TC  - TEMPERATURE IN CELSIUS
   VSB - VISIBILITY IN MILES
   HX  - HEAT INDEX
   FAIR- INDICATES FEW OR NO CLOUDS BELOW 12,000 FT, WITH NO 
         SIGNIFICANT WEATHER AND/OR OBSTRUCTIONS TO VISIBILITY.